AIC130 VABB-VOHS

Flight info

Callsign AIC130
Flight time N/A
Altitude 37000
Route VEVAK2AXPPN/27 PPN W28 PONIP NAMSA8
Aircraft B742/H-SDFHIRWXY/L

Departure

Time N/A
Airport Chhatrapati Shivaji Maharaj International Airport (VABB)

Arrival

Time 2026-04-21 17:10
Airport Rajiv Gandhi International Airport (VOHS)
Time Latitude Longitude Altitude Speed Heading
2026-04-21 16:19 18.63685 73.70714 31570 ft 458 kts 106°
2026-04-21 16:20 18.62862 73.73912 31933 ft 460 kts 106°
2026-04-21 16:20 18.62313 73.76054 32169 ft 462 kts 106°
2026-04-21 16:20 18.61748 73.78261 32408 ft 463 kts 105°
2026-04-21 16:21 18.59542 73.86914 33305 ft 469 kts 105°
2026-04-21 16:21 18.58610 73.90224 33623 ft 471 kts 110°
2026-04-21 16:21 18.57443 73.93434 33946 ft 473 kts 113°
2026-04-21 16:21 18.56142 73.96619 34259 ft 475 kts 114°
2026-04-21 16:22 18.54819 73.99710 34555 ft 477 kts 115°
2026-04-21 16:22 18.53425 74.02920 34854 ft 479 kts 115°
2026-04-21 16:22 18.52070 74.06028 35135 ft 481 kts 115°
2026-04-21 16:22 18.50686 74.09207 35413 ft 483 kts 115°
2026-04-21 16:23 18.49306 74.12381 35680 ft 485 kts 115°
2026-04-21 16:23 18.47907 74.15605 35945 ft 484 kts 115°
2026-04-21 16:23 18.46562 74.18708 36170 ft 478 kts 115°
2026-04-21 16:23 18.45175 74.21908 36379 ft 478 kts 115°
2026-04-21 16:24 18.43817 74.25040 36578 ft 479 kts 115°
2026-04-21 16:24 18.42443 74.28206 36736 ft 481 kts 115°
2026-04-21 16:24 18.41076 74.31351 36778 ft 485 kts 115°
2026-04-21 16:25 18.38303 74.37732 36790 ft 487 kts 115°
2026-04-21 16:25 18.35519 74.44129 36820 ft 481 kts 115°
2026-04-21 16:26 18.32791 74.50393 36859 ft 484 kts 115°
2026-04-21 16:26 18.30014 74.56758 36890 ft 484 kts 115°
2026-04-21 16:27 18.27231 74.63133 36913 ft 483 kts 115°
2026-04-21 16:27 18.24511 74.69331 36927 ft 484 kts 115°
2026-04-21 16:28 18.21727 74.75695 36933 ft 484 kts 115°
2026-04-21 16:28 18.18992 74.82001 36933 ft 483 kts 115°
2026-04-21 16:29 18.16218 74.88408 36933 ft 484 kts 115°
2026-04-21 16:29 18.13482 74.94722 36929 ft 485 kts 115°
2026-04-21 16:30 18.10758 75.01003 36927 ft 486 kts 115°
2026-04-21 16:30 18.07977 75.07407 36930 ft 487 kts 115°
2026-04-21 16:31 18.05172 75.13859 36933 ft 488 kts 115°
2026-04-21 16:31 18.02388 75.20258 36933 ft 488 kts 115°
2026-04-21 16:32 17.99584 75.26694 36933 ft 488 kts 115°
2026-04-21 16:32 17.96825 75.33020 36933 ft 488 kts 115°
2026-04-21 16:33 17.94023 75.39438 36933 ft 488 kts 115°
2026-04-21 16:33 17.91213 75.45866 36933 ft 488 kts 115°
2026-04-21 16:34 17.88452 75.52178 36933 ft 488 kts 115°
2026-04-21 16:34 17.85658 75.58558 36933 ft 488 kts 115°
2026-04-21 16:35 17.82848 75.64967 36930 ft 488 kts 115°
2026-04-21 16:35 17.80049 75.71298 36926 ft 488 kts 115°
2026-04-21 16:36 17.77240 75.77647 36928 ft 488 kts 115°
2026-04-21 16:36 17.74460 75.83954 36933 ft 488 kts 115°
2026-04-21 16:37 17.71759 75.90084 36933 ft 488 kts 115°
2026-04-21 16:37 17.68822 75.96748 36933 ft 488 kts 115°
2026-04-21 16:38 17.65993 76.03133 36933 ft 488 kts 115°
2026-04-21 16:38 17.63147 76.09518 36933 ft 488 kts 115°
2026-04-21 16:39 17.60303 76.15889 36939 ft 488 kts 115°
2026-04-21 16:39 17.57453 76.22267 36947 ft 488 kts 115°
2026-04-21 16:40 17.54610 76.28625 36955 ft 488 kts 115°
2026-04-21 16:40 17.51759 76.34994 36962 ft 488 kts 115°
2026-04-21 16:41 17.48916 76.41337 36963 ft 488 kts 115°
2026-04-21 16:41 17.46046 76.47736 36963 ft 488 kts 115°
2026-04-21 16:42 17.43182 76.54115 36963 ft 488 kts 115°
2026-04-21 16:42 17.40807 76.59399 36963 ft 488 kts 115°
2026-04-21 16:44 17.32627 76.77801 36960 ft 488 kts 109°
2026-04-21 16:44 17.30813 76.90063 35802 ft 496 kts 94°
2026-04-21 16:45 17.30633 76.93535 35283 ft 493 kts 92°
2026-04-21 16:45 17.30469 76.97132 34745 ft 494 kts 92°
2026-04-21 16:45 17.30314 77.00570 34231 ft 494 kts 92°
2026-04-21 16:45 17.30143 77.04231 33682 ft 491 kts 92°
2026-04-21 16:46 17.29976 77.07682 33161 ft 488 kts 92°
2026-04-21 16:46 17.29802 77.11183 32628 ft 484 kts 92°
2026-04-21 16:46 17.29633 77.14542 32115 ft 481 kts 92°
2026-04-21 16:46 17.29453 77.18087 31569 ft 478 kts 92°
2026-04-21 16:47 17.29281 77.21448 31049 ft 475 kts 92°
2026-04-21 16:47 17.29105 77.24869 30516 ft 472 kts 92°
2026-04-21 16:47 17.28932 77.28220 29990 ft 469 kts 92°
2026-04-21 16:47 17.28756 77.31619 29454 ft 466 kts 92°
2026-04-21 16:48 17.28590 77.34822 29046 ft 461 kts 92°
2026-04-21 16:48 17.28414 77.38196 28499 ft 459 kts 92°
2026-04-21 16:48 17.28242 77.41489 27955 ft 456 kts 92°
2026-04-21 16:48 17.28075 77.44687 27423 ft 454 kts 92°
2026-04-21 16:49 17.27904 77.47935 26803 ft 454 kts 92°
2026-04-21 16:49 17.27733 77.51183 26167 ft 445 kts 92°
2026-04-21 16:49 17.27567 77.54331 25541 ft 436 kts 92°
2026-04-21 16:49 17.27399 77.57475 24904 ft 427 kts 92°
2026-04-21 16:50 17.27238 77.60496 24279 ft 418 kts 92°
2026-04-21 16:50 17.27075 77.63513 23641 ft 409 kts 92°
2026-04-21 16:50 17.26920 77.66375 23022 ft 400 kts 93°
2026-04-21 16:50 17.26756 77.69222 22392 ft 391 kts 93°
2026-04-21 16:51 17.26594 77.72043 21753 ft 382 kts 93°
2026-04-21 16:51 17.26428 77.74744 21127 ft 374 kts 94°
2026-04-21 16:51 17.26234 77.77429 20552 ft 367 kts 94°
2026-04-21 16:51 17.26031 77.80071 20047 ft 368 kts 94°
2026-04-21 16:52 17.25858 77.82312 19616 ft 365 kts 94°
2026-04-21 16:52 17.25707 77.84253 19240 ft 362 kts 94°
2026-04-21 16:53 17.25506 77.86848 18732 ft 359 kts 94°
2026-04-21 16:53 17.25306 77.89432 18224 ft 357 kts 94°
2026-04-21 16:53 17.25110 77.91972 17720 ft 354 kts 94°
2026-04-21 16:53 17.24909 77.94562 17203 ft 351 kts 94°
2026-04-21 16:54 17.24733 77.96832 16746 ft 349 kts 94°
2026-04-21 16:54 17.24567 77.98965 16314 ft 347 kts 94°
2026-04-21 16:54 17.24342 78.01855 15725 ft 344 kts 94°
2026-04-21 16:54 17.24159 78.04196 15244 ft 342 kts 94°
2026-04-21 16:55 17.23972 78.06499 14766 ft 339 kts 96°
2026-04-21 16:55 17.23343 78.08978 14228 ft 338 kts 114°
2026-04-21 16:55 17.22110 78.10995 13727 ft 337 kts 131°
2026-04-21 16:55 17.20309 78.12568 13271 ft 335 kts 149°
2026-04-21 16:56 17.18247 78.13437 13042 ft 333 kts 167°
2026-04-21 16:56 17.17044 78.13622 12997 ft 334 kts 176°
2026-04-21 16:56 17.15212 78.13589 12960 ft 335 kts 183°
2026-04-21 16:56 17.13234 78.13258 12993 ft 335 kts 189°
2026-04-21 16:57 17.11072 78.13427 13094 ft 336 kts 165°
2026-04-21 16:57 17.08669 78.13704 13241 ft 340 kts 180°
2026-04-21 16:57 17.06342 78.13945 13380 ft 341 kts 165°
2026-04-21 16:57 17.04172 78.14889 13511 ft 340 kts 147°
2026-04-21 16:58 17.02393 78.16405 13445 ft 341 kts 130°
2026-04-21 16:58 17.01079 78.18442 13283 ft 336 kts 113°
2026-04-21 16:58 17.00421 78.20729 13053 ft 331 kts 96°
2026-04-21 16:58 17.00466 78.23069 12981 ft 326 kts 78°
2026-04-21 16:59 17.01173 78.25255 12971 ft 325 kts 63°
2026-04-21 16:59 17.02242 78.27370 12960 ft 326 kts 60°
2026-04-21 16:59 17.03328 78.29387 12906 ft 327 kts 59°
2026-04-21 16:59 17.04437 78.31426 12476 ft 325 kts 59°
2026-04-21 17:00 17.05551 78.33467 11963 ft 315 kts 59°
2026-04-21 17:00 17.06605 78.35399 11463 ft 306 kts 59°
2026-04-21 17:00 17.07283 78.36643 11134 ft 301 kts 59°
2026-04-21 17:00 17.08640 78.39143 10458 ft 294 kts 59°
2026-04-21 17:01 17.09629 78.40974 9903 ft 294 kts 59°
2026-04-21 17:01 17.10637 78.42845 9252 ft 291 kts 59°
2026-04-21 17:01 17.11595 78.44634 8622 ft 289 kts 59°
2026-04-21 17:01 17.12559 78.46439 7983 ft 287 kts 59°
2026-04-21 17:02 17.13485 78.48183 7363 ft 286 kts 59°
2026-04-21 17:02 17.14344 78.50044 6704 ft 286 kts 73°
2026-04-21 17:02 17.14539 78.52103 6073 ft 287 kts 88°
2026-04-21 17:02 17.14535 78.54195 5427 ft 288 kts 89°
2026-04-21 17:03 17.14519 78.56250 4903 ft 285 kts 89°
2026-04-21 17:03 17.14505 78.58316 4523 ft 284 kts 89°
2026-04-21 17:03 17.14496 78.60357 4174 ft 282 kts 89°
2026-04-21 17:03 17.14491 78.62360 4010 ft 266 kts 89°
2026-04-21 17:04 17.14530 78.64203 3952 ft 246 kts 78°
2026-04-21 17:04 17.15255 78.65739 3959 ft 237 kts 42°
2026-04-21 17:04 17.16661 78.66533 3961 ft 229 kts
2026-04-21 17:04 17.18174 78.66303 3961 ft 222 kts 329°
2026-04-21 17:05 17.19245 78.65215 3971 ft 219 kts 302°
2026-04-21 17:05 17.20044 78.63854 3964 ft 219 kts 300°
2026-04-21 17:05 17.20812 78.62479 3963 ft 219 kts 300°
2026-04-21 17:05 17.21559 78.61133 3958 ft 212 kts 300°
2026-04-21 17:06 17.22276 78.59842 3944 ft 209 kts 300°
2026-04-21 17:06 17.22959 78.58532 3660 ft 205 kts 289°
2026-04-21 17:06 17.23035 78.57114 3596 ft 205 kts 265°
2026-04-21 17:06 17.23017 78.55640 3639 ft 205 kts 271°
2026-04-21 17:07 17.23020 78.54627 3654 ft 202 kts 270°
2026-04-21 17:07 17.23007 78.52828 3500 ft 184 kts 270°
2026-04-21 17:07 17.22994 78.51638 3295 ft 169 kts 270°
2026-04-21 17:07 17.22980 78.50418 3072 ft 150 kts 270°
2026-04-21 17:08 17.22967 78.49392 2832 ft 134 kts 269°
2026-04-21 17:08 17.22960 78.48439 2624 ft 138 kts 270°
2026-04-21 17:08 17.22950 78.47460 2481 ft 137 kts 269°
2026-04-21 17:08 17.22932 78.46465 2318 ft 133 kts 269°
2026-04-21 17:09 17.22897 78.44596 2048 ft 117 kts 270°
2026-04-21 17:09 17.22890 78.43861 2039 ft 90 kts 268°
2026-04-21 17:09 17.22879 78.43268 2017 ft 72 kts 272°
2026-04-21 17:10 17.22989 78.42889 2005 ft 29 kts 300°
2026-04-21 17:10 17.23421 78.43156 2015 ft 0 kts 358°